Year,Month,Day,Hour,Minute,Value (Times are PST for temperature in C)
2011,07,02,00,00,10.80
2011,07,02,00,01,10.80
2011,07,02,00,02,10.80
2011,07,02,00,03,10.80
2011,07,02,00,04,10.80
2011,07,02,00,05,10.80
2011,07,02,00,06,10.80
2011,07,02,00,07,10.80
2011,07,02,00,08,10.70
2011,07,02,00,09,10.70
2011,07,02,00,10,10.70
2011,07,02,00,11,10.70
2011,07,02,00,12,10.70
2011,07,02,00,13,10.70
2011,07,02,00,14,10.70
2011,07,02,00,15,10.70
2011,07,02,00,16,10.60
2011,07,02,00,17,10.60
2011,07,02,00,18,10.60
2011,07,02,00,19,10.60
2011,07,02,00,20,10.60
2011,07,02,00,21,10.60
2011,07,02,00,22,10.60
2011,07,02,00,23,10.50
2011,07,02,00,24,10.40
2011,07,02,00,25,10.40
2011,07,02,00,26,10.40
2011,07,02,00,27,10.40
2011,07,02,00,28,10.40
2011,07,02,00,29,10.40
2011,07,02,00,30,10.40
2011,07,02,00,31,10.40
2011,07,02,00,32,10.40
2011,07,02,00,33,10.40
2011,07,02,00,34,10.40
2011,07,02,00,35,10.40
2011,07,02,00,36,10.40
2011,07,02,00,37,10.40
2011,07,02,00,38,10.40
2011,07,02,00,39,10.40
2011,07,02,00,40,10.30
2011,07,02,00,41,10.30
2011,07,02,00,42,10.30
2011,07,02,00,43,10.30
2011,07,02,00,44,10.30
2011,07,02,00,45,10.20
2011,07,02,00,46,10.20
2011,07,02,00,47,10.20
2011,07,02,00,48,10.20
2011,07,02,00,49,10.20
2011,07,02,00,50,10.20
2011,07,02,00,51,10.10
2011,07,02,00,52,10.10
2011,07,02,00,53,10.10
2011,07,02,00,54,10.10
2011,07,02,00,55,10.10
2011,07,02,00,56,10.10
2011,07,02,00,57,10.10
2011,07,02,00,58,10.10
2011,07,02,00,59,10.00
2011,07,02,01,00,9.90
2011,07,02,01,01,9.90
2011,07,02,01,02,9.90
2011,07,02,01,03,9.90
2011,07,02,01,04,9.90
2011,07,02,01,05,9.90
2011,07,02,01,06,9.90
2011,07,02,01,07,9.90
2011,07,02,01,08,9.80
2011,07,02,01,09,9.80
2011,07,02,01,10,9.80
2011,07,02,01,11,9.80
2011,07,02,01,12,9.80
2011,07,02,01,13,9.80
2011,07,02,01,14,9.80
2011,07,02,01,15,9.70
2011,07,02,01,16,9.70
2011,07,02,01,17,9.70
2011,07,02,01,18,9.70
2011,07,02,01,19,9.70
2011,07,02,01,20,9.70
2011,07,02,01,21,9.70
2011,07,02,01,22,9.70
2011,07,02,01,23,9.70
2011,07,02,01,24,9.70
2011,07,02,01,25,9.70
2011,07,02,01,26,9.70
2011,07,02,01,27,9.70
2011,07,02,01,28,9.70
2011,07,02,01,29,9.70
2011,07,02,01,30,9.70
2011,07,02,01,31,9.70
2011,07,02,01,32,9.70
2011,07,02,01,33,9.70
2011,07,02,01,34,9.70
2011,07,02,01,35,9.70
2011,07,02,01,36,9.70
2011,07,02,01,37,9.70
2011,07,02,01,38,9.70
2011,07,02,01,39,9.60
2011,07,02,01,40,9.60
2011,07,02,01,41,9.60
2011,07,02,01,42,9.60
2011,07,02,01,43,9.50
2011,07,02,01,44,9.50
2011,07,02,01,45,9.40
2011,07,02,01,46,9.40
2011,07,02,01,47,9.40
2011,07,02,01,48,9.30
2011,07,02,01,49,9.30
2011,07,02,01,50,9.30
2011,07,02,01,51,9.30
2011,07,02,01,52,9.20
2011,07,02,01,53,9.30
2011,07,02,01,54,9.30
2011,07,02,01,55,9.30
2011,07,02,01,56,9.30
2011,07,02,01,57,9.30
2011,07,02,01,58,9.30
2011,07,02,01,59,9.30
2011,07,02,02,00,9.30
2011,07,02,02,01,9.30
2011,07,02,02,02,9.30
2011,07,02,02,03,9.30
2011,07,02,02,04,9.30
2011,07,02,02,05,9.30
2011,07,02,02,06,9.20
2011,07,02,02,07,9.20
2011,07,02,02,08,9.20
2011,07,02,02,09,9.20
2011,07,02,02,10,9.20
2011,07,02,02,11,9.20
2011,07,02,02,12,9.10
2011,07,02,02,13,9.10
2011,07,02,02,14,9.10
2011,07,02,02,15,9.10
2011,07,02,02,16,9.00
2011,07,02,02,17,9.00
2011,07,02,02,18,9.00
2011,07,02,02,19,9.00
2011,07,02,02,20,9.00
2011,07,02,02,21,9.00
2011,07,02,02,22,9.00
2011,07,02,02,23,8.90
2011,07,02,02,24,8.90
2011,07,02,02,25,8.90
2011,07,02,02,26,8.90
2011,07,02,02,27,8.90
2011,07,02,02,28,8.90
2011,07,02,02,29,8.80
2011,07,02,02,30,8.80
2011,07,02,02,31,8.80
2011,07,02,02,32,8.80
2011,07,02,02,33,8.80
2011,07,02,02,34,8.80
2011,07,02,02,35,8.80
2011,07,02,02,36,8.70
2011,07,02,02,37,8.70
2011,07,02,02,38,8.70
2011,07,02,02,39,8.70
2011,07,02,02,40,8.70
2011,07,02,02,41,8.70
2011,07,02,02,42,8.70
2011,07,02,02,43,8.60
2011,07,02,02,44,8.60
2011,07,02,02,45,8.60
2011,07,02,02,46,8.60
2011,07,02,02,47,8.60
2011,07,02,02,48,8.60
2011,07,02,02,49,8.60
2011,07,02,02,50,8.60
2011,07,02,02,51,8.60
2011,07,02,02,52,8.60
2011,07,02,02,53,8.60
2011,07,02,02,54,8.60
2011,07,02,02,55,8.60
2011,07,02,02,56,8.60
2011,07,02,02,57,8.60
2011,07,02,02,58,8.50
2011,07,02,02,59,8.50
2011,07,02,03,00,8.50
2011,07,02,03,01,8.50
2011,07,02,03,02,8.60
2011,07,02,03,03,8.60
2011,07,02,03,04,8.60
2011,07,02,03,05,8.60
2011,07,02,03,06,8.60
2011,07,02,03,07,8.60
2011,07,02,03,08,8.60
2011,07,02,03,09,8.50
2011,07,02,03,10,8.50
2011,07,02,03,11,8.50
2011,07,02,03,12,8.50
2011,07,02,03,13,8.50
2011,07,02,03,14,8.40
2011,07,02,03,15,8.40
2011,07,02,03,16,8.40
2011,07,02,03,17,8.40
2011,07,02,03,18,8.40
2011,07,02,03,19,8.40
2011,07,02,03,20,8.40
2011,07,02,03,21,8.40
2011,07,02,03,22,8.40
2011,07,02,03,23,8.40
2011,07,02,03,24,8.40
2011,07,02,03,25,8.30
2011,07,02,03,26,8.30
2011,07,02,03,27,8.30
2011,07,02,03,28,8.30
2011,07,02,03,29,8.30
2011,07,02,03,30,8.30
2011,07,02,03,31,8.20
2011,07,02,03,32,8.20
2011,07,02,03,33,8.20
2011,07,02,03,34,8.20
2011,07,02,03,35,8.20
2011,07,02,03,36,8.20
2011,07,02,03,37,8.20
2011,07,02,03,38,8.20
2011,07,02,03,39,8.20
2011,07,02,03,40,8.20
2011,07,02,03,41,8.20
2011,07,02,03,42,8.20
2011,07,02,03,43,8.20
2011,07,02,03,44,8.20
2011,07,02,03,45,8.20
2011,07,02,03,46,8.10
2011,07,02,03,47,8.10
2011,07,02,03,48,8.10
2011,07,02,03,49,8.20
2011,07,02,03,50,8.20
2011,07,02,03,51,8.20
2011,07,02,03,52,8.20
2011,07,02,03,53,8.20
2011,07,02,03,54,8.20
2011,07,02,03,55,8.20
2011,07,02,03,56,8.20
2011,07,02,03,57,8.20
2011,07,02,03,58,8.20
2011,07,02,03,59,8.20
2011,07,02,04,00,8.20
2011,07,02,04,01,8.10
2011,07,02,04,02,8.10
2011,07,02,04,03,8.10
2011,07,02,04,04,8.10
2011,07,02,04,05,8.10
2011,07,02,04,06,8.10
2011,07,02,04,07,8.10
2011,07,02,04,08,8.10
2011,07,02,04,09,8.00
2011,07,02,04,10,8.00
2011,07,02,04,11,8.00
2011,07,02,04,12,8.00
2011,07,02,04,13,8.00
2011,07,02,04,14,8.00
2011,07,02,04,15,8.00
2011,07,02,04,16,8.00
2011,07,02,04,17,8.00
2011,07,02,04,18,8.00
2011,07,02,04,19,8.00
2011,07,02,04,20,8.00
2011,07,02,04,21,7.90
2011,07,02,04,22,7.90
2011,07,02,04,23,7.90
2011,07,02,04,24,7.80
2011,07,02,04,25,7.80
2011,07,02,04,26,7.80
2011,07,02,04,27,7.80
2011,07,02,04,28,7.80
2011,07,02,04,29,7.80
2011,07,02,04,30,7.80
2011,07,02,04,31,7.80
2011,07,02,04,32,7.80
2011,07,02,04,33,7.80
2011,07,02,04,34,7.80
2011,07,02,04,35,7.80
2011,07,02,04,36,7.80
2011,07,02,04,37,7.80
2011,07,02,04,38,7.80
2011,07,02,04,39,7.80
2011,07,02,04,40,7.80
2011,07,02,04,41,7.70
2011,07,02,04,42,7.70
2011,07,02,04,43,7.70
2011,07,02,04,44,7.70
2011,07,02,04,45,7.70
2011,07,02,04,46,7.70
2011,07,02,04,47,7.70
2011,07,02,04,48,7.70
2011,07,02,04,49,7.70
2011,07,02,04,50,7.70
2011,07,02,04,51,7.70
2011,07,02,04,52,7.70
2011,07,02,04,53,7.70
2011,07,02,04,54,7.70
2011,07,02,04,55,7.70
2011,07,02,04,56,7.70
2011,07,02,04,57,7.70
2011,07,02,04,58,7.80
2011,07,02,04,59,7.80
2011,07,02,05,00,7.80
2011,07,02,05,01,7.80
2011,07,02,05,02,7.70
2011,07,02,05,03,7.70
2011,07,02,05,04,7.70
2011,07,02,05,05,7.70
2011,07,02,05,06,7.70
2011,07,02,05,07,7.70
2011,07,02,05,08,7.70
2011,07,02,05,09,7.70
2011,07,02,05,10,7.70
2011,07,02,05,11,7.70
2011,07,02,05,12,7.70
2011,07,02,05,13,7.70
2011,07,02,05,14,7.70
2011,07,02,05,15,7.70
2011,07,02,05,16,7.70
2011,07,02,05,17,7.70
2011,07,02,05,18,7.60
2011,07,02,05,19,7.60
2011,07,02,05,20,7.60
2011,07,02,05,21,7.60
2011,07,02,05,22,7.50
2011,07,02,05,23,7.50
2011,07,02,05,24,7.50
2011,07,02,05,25,7.50
2011,07,02,05,26,7.40
2011,07,02,05,27,7.40
2011,07,02,05,28,7.40
2011,07,02,05,29,7.40
2011,07,02,05,30,7.40
2011,07,02,05,31,7.30
2011,07,02,05,32,7.30
2011,07,02,05,33,7.30
2011,07,02,05,34,7.30
2011,07,02,05,35,7.30
2011,07,02,05,36,7.30
2011,07,02,05,37,7.30
2011,07,02,05,38,7.30
2011,07,02,05,39,7.30
2011,07,02,05,40,7.30
2011,07,02,05,41,7.30
2011,07,02,05,42,7.30
2011,07,02,05,43,7.30
2011,07,02,05,44,7.30
2011,07,02,05,45,7.30
2011,07,02,05,46,7.30
2011,07,02,05,47,7.30
2011,07,02,05,48,7.30
2011,07,02,05,49,7.30
2011,07,02,05,50,7.30
2011,07,02,05,51,7.30
2011,07,02,05,52,7.30
2011,07,02,05,53,7.30
2011,07,02,05,54,7.40
2011,07,02,05,55,7.40
2011,07,02,05,56,7.50
2011,07,02,05,57,7.50
2011,07,02,05,58,7.60
2011,07,02,05,59,7.60
2011,07,02,06,00,7.70
2011,07,02,06,01,7.70
2011,07,02,06,02,7.80
2011,07,02,06,03,7.80
2011,07,02,06,04,7.80
2011,07,02,06,05,7.80
2011,07,02,06,06,7.80
2011,07,02,06,07,7.80
2011,07,02,06,08,7.80
2011,07,02,06,09,7.80
2011,07,02,06,10,7.80
2011,07,02,06,11,7.80
2011,07,02,06,12,7.70
2011,07,02,06,13,7.70
2011,07,02,06,14,7.80
2011,07,02,06,15,7.80
2011,07,02,06,16,7.80
2011,07,02,06,17,7.80
2011,07,02,06,18,7.80
2011,07,02,06,19,7.80
2011,07,02,06,20,7.80
2011,07,02,06,21,7.80
2011,07,02,06,22,7.80
2011,07,02,06,23,7.90
2011,07,02,06,24,7.90
2011,07,02,06,25,8.00
2011,07,02,06,26,8.00
2011,07,02,06,27,8.10
2011,07,02,06,28,8.10
2011,07,02,06,29,8.20
2011,07,02,06,30,8.20
2011,07,02,06,31,8.30
2011,07,02,06,32,8.30
2011,07,02,06,33,8.40
2011,07,02,06,34,8.50
2011,07,02,06,35,8.60
2011,07,02,06,36,8.70
2011,07,02,06,37,8.70
2011,07,02,06,38,8.70
2011,07,02,06,39,8.70
2011,07,02,06,40,8.80
2011,07,02,06,41,8.80
2011,07,02,06,42,8.90
2011,07,02,06,43,8.90
2011,07,02,06,44,9.00
2011,07,02,06,45,9.10
2011,07,02,06,46,9.10
2011,07,02,06,47,9.20
2011,07,02,06,48,9.20
2011,07,02,06,49,9.20
2011,07,02,06,50,9.20
2011,07,02,06,51,9.20
2011,07,02,06,52,9.20
2011,07,02,06,53,9.20
2011,07,02,06,54,9.20
2011,07,02,06,55,9.20
2011,07,02,06,56,9.20
2011,07,02,06,57,9.20
2011,07,02,06,58,9.20
2011,07,02,06,59,9.30
2011,07,02,07,00,9.30
2011,07,02,07,01,9.30
2011,07,02,07,02,9.40
2011,07,02,07,03,9.40
2011,07,02,07,04,9.50
2011,07,02,07,05,9.60
2011,07,02,07,06,9.60
2011,07,02,07,07,9.70
2011,07,02,07,08,9.70
2011,07,02,07,09,9.70
2011,07,02,07,10,9.70
2011,07,02,07,11,9.80
2011,07,02,07,12,9.80
2011,07,02,07,13,9.90
2011,07,02,07,14,10.00
2011,07,02,07,15,10.10
2011,07,02,07,16,10.20
2011,07,02,07,17,10.30
2011,07,02,07,18,10.40
2011,07,02,07,19,10.50
2011,07,02,07,20,10.60
2011,07,02,07,21,10.60
2011,07,02,07,22,10.80
2011,07,02,07,23,10.90
2011,07,02,07,24,11.00
2011,07,02,07,25,11.20
2011,07,02,07,26,11.30
2011,07,02,07,27,11.50
2011,07,02,07,28,11.60
2011,07,02,07,29,11.60
2011,07,02,07,30,11.80
2011,07,02,07,31,11.80
2011,07,02,07,32,11.90
2011,07,02,07,33,11.90
2011,07,02,07,34,12.00
2011,07,02,07,35,12.00
2011,07,02,07,36,12.10
2011,07,02,07,37,12.20
2011,07,02,07,38,12.20
2011,07,02,07,39,12.20
2011,07,02,07,40,12.30
2011,07,02,07,41,12.30
2011,07,02,07,42,12.30
2011,07,02,07,43,12.40
2011,07,02,07,44,12.50
2011,07,02,07,45,12.60
2011,07,02,07,46,12.60
2011,07,02,07,47,12.50
2011,07,02,07,48,12.50
2011,07,02,07,49,12.50
2011,07,02,07,50,12.50
2011,07,02,07,51,12.50
2011,07,02,07,52,12.50
2011,07,02,07,53,12.50
2011,07,02,07,54,12.50
2011,07,02,07,55,12.40
2011,07,02,07,56,12.40
2011,07,02,07,57,12.30
2011,07,02,07,58,12.30
2011,07,02,07,59,12.30
2011,07,02,08,00,12.30
2011,07,02,08,01,12.20
2011,07,02,08,02,12.20
2011,07,02,08,03,12.20
2011,07,02,08,04,12.20
2011,07,02,08,05,12.20
2011,07,02,08,06,12.20
2011,07,02,08,07,12.10
2011,07,02,08,08,12.10
2011,07,02,08,09,12.10
2011,07,02,08,10,12.10
2011,07,02,08,11,12.10
2011,07,02,08,12,12.10
2011,07,02,08,13,12.20
2011,07,02,08,14,12.20
2011,07,02,08,15,12.30
2011,07,02,08,16,12.30
2011,07,02,08,17,12.30
2011,07,02,08,18,12.40
2011,07,02,08,19,12.40
2011,07,02,08,20,12.50
2011,07,02,08,21,12.60
2011,07,02,08,22,12.70
2011,07,02,08,23,12.80
2011,07,02,08,24,12.80
2011,07,02,08,25,12.90
2011,07,02,08,26,12.90
2011,07,02,08,27,13.10
2011,07,02,08,28,13.20
2011,07,02,08,29,13.30
2011,07,02,08,30,13.40
2011,07,02,08,31,13.50
2011,07,02,08,32,13.50
2011,07,02,08,33,13.40
2011,07,02,08,34,13.40
2011,07,02,08,35,13.50
2011,07,02,08,36,13.50
2011,07,02,08,37,13.40
2011,07,02,08,38,13.30
2011,07,02,08,39,13.20
2011,07,02,08,40,13.10
2011,07,02,08,41,13.00
2011,07,02,08,42,12.90
2011,07,02,08,43,12.80
2011,07,02,08,44,12.80
2011,07,02,08,45,12.80
2011,07,02,08,46,12.90
2011,07,02,08,47,12.90
2011,07,02,08,48,13.00
2011,07,02,08,49,13.10
2011,07,02,08,50,13.10
2011,07,02,08,51,13.20
2011,07,02,08,52,13.20
2011,07,02,08,53,13.30
2011,07,02,08,54,13.30
2011,07,02,08,55,13.30
2011,07,02,08,56,13.30
2011,07,02,08,57,13.40
2011,07,02,08,58,13.40
2011,07,02,08,59,13.30
2011,07,02,09,00,13.40
2011,07,02,09,01,13.50
2011,07,02,09,02,13.60
2011,07,02,09,03,13.70
2011,07,02,09,04,13.70
2011,07,02,09,05,13.70
2011,07,02,09,06,13.70
2011,07,02,09,07,13.70
2011,07,02,09,08,13.70
2011,07,02,09,09,13.70
2011,07,02,09,10,13.70
2011,07,02,09,11,13.70
2011,07,02,09,12,13.70
2011,07,02,09,13,13.70
2011,07,02,09,14,13.70
2011,07,02,09,15,13.80
2011,07,02,09,16,13.80
2011,07,02,09,17,13.90
2011,07,02,09,18,14.00
2011,07,02,09,19,14.00
2011,07,02,09,20,14.00
2011,07,02,09,21,14.00
2011,07,02,09,22,14.00
2011,07,02,09,23,14.00
2011,07,02,09,24,14.10
2011,07,02,09,25,14.10
2011,07,02,09,26,14.20
2011,07,02,09,27,14.20
2011,07,02,09,28,14.20
2011,07,02,09,29,14.30
2011,07,02,09,30,14.30
2011,07,02,09,31,14.20
2011,07,02,09,32,14.10
2011,07,02,09,33,14.10
2011,07,02,09,34,14.10
2011,07,02,09,35,14.10
2011,07,02,09,36,14.20
2011,07,02,09,37,14.20
2011,07,02,09,38,14.20
2011,07,02,09,39,14.20
2011,07,02,09,40,14.30
2011,07,02,09,41,14.30
2011,07,02,09,42,14.20
2011,07,02,09,43,14.10
2011,07,02,09,44,14.00
2011,07,02,09,45,14.00
2011,07,02,09,46,14.00
2011,07,02,09,47,14.10
2011,07,02,09,48,14.10
2011,07,02,09,49,14.00
2011,07,02,09,50,13.90
2011,07,02,09,51,13.80
2011,07,02,09,52,13.70
2011,07,02,09,53,13.80
2011,07,02,09,54,13.80
2011,07,02,09,55,13.80
2011,07,02,09,56,13.80
2011,07,02,09,57,13.80
2011,07,02,09,58,13.90
2011,07,02,09,59,13.90
2011,07,02,10,00,14.00
2011,07,02,10,01,14.00
2011,07,02,10,02,14.10
2011,07,02,10,03,14.10
2011,07,02,10,04,14.20
2011,07,02,10,05,14.20
2011,07,02,10,06,14.30
2011,07,02,10,07,14.30
2011,07,02,10,08,14.30
2011,07,02,10,09,14.20
2011,07,02,10,10,14.20
2011,07,02,10,11,14.20
2011,07,02,10,12,14.20
2011,07,02,10,13,14.40
2011,07,02,10,14,14.50
2011,07,02,10,15,14.60
2011,07,02,10,16,14.60
2011,07,02,10,17,14.60
2011,07,02,10,18,14.60
2011,07,02,10,19,14.60
2011,07,02,10,20,14.50
2011,07,02,10,21,14.50
2011,07,02,10,22,14.50
2011,07,02,10,23,14.60
2011,07,02,10,24,14.60
2011,07,02,10,25,14.70
2011,07,02,10,26,14.70
2011,07,02,10,27,14.70
2011,07,02,10,28,14.70
2011,07,02,10,29,14.70
2011,07,02,10,30,14.70
2011,07,02,10,31,14.60
2011,07,02,10,32,14.50
2011,07,02,10,33,14.30
2011,07,02,10,34,14.20
2011,07,02,10,35,14.20
2011,07,02,10,36,14.10
2011,07,02,10,37,14.00
2011,07,02,10,38,13.90
2011,07,02,10,39,14.00
2011,07,02,10,40,14.10
2011,07,02,10,41,14.20
2011,07,02,10,42,14.20
2011,07,02,10,43,14.10
2011,07,02,10,44,14.00
2011,07,02,10,45,14.00
2011,07,02,10,46,14.00
2011,07,02,10,47,14.00
2011,07,02,10,48,14.00
2011,07,02,10,49,13.90
2011,07,02,10,50,14.00
2011,07,02,10,51,14.00
2011,07,02,10,52,14.10
2011,07,02,10,53,14.10
2011,07,02,10,54,14.20
2011,07,02,10,55,14.20
2011,07,02,10,56,14.20
2011,07,02,10,57,14.20
2011,07,02,10,58,14.20
2011,07,02,10,59,14.20
2011,07,02,11,00,14.20
2011,07,02,11,01,14.20
2011,07,02,11,02,14.20
2011,07,02,11,03,14.20
2011,07,02,11,04,14.30
2011,07,02,11,05,14.30
2011,07,02,11,06,14.40
2011,07,02,11,07,14.40
2011,07,02,11,08,14.40
2011,07,02,11,09,14.30
2011,07,02,11,10,14.40
2011,07,02,11,11,14.50
2011,07,02,11,12,14.50
2011,07,02,11,13,14.60
2011,07,02,11,14,14.70
2011,07,02,11,15,14.80
2011,07,02,11,16,14.80
2011,07,02,11,17,14.80
2011,07,02,11,18,14.80
2011,07,02,11,19,14.70
2011,07,02,11,20,14.70
2011,07,02,11,21,14.70
2011,07,02,11,22,14.70
2011,07,02,11,23,14.80
2011,07,02,11,24,14.80
2011,07,02,11,25,14.90
2011,07,02,11,26,15.00
2011,07,02,11,27,15.00
2011,07,02,11,28,14.80
2011,07,02,11,29,14.80
2011,07,02,11,30,14.90
2011,07,02,11,31,15.00
2011,07,02,11,32,15.00
2011,07,02,11,33,15.00
2011,07,02,11,34,15.10
2011,07,02,11,35,15.10
2011,07,02,11,36,15.10
2011,07,02,11,37,15.10
2011,07,02,11,38,15.10
2011,07,02,11,39,15.20
2011,07,02,11,40,15.20
2011,07,02,11,41,15.20
2011,07,02,11,42,15.20
2011,07,02,11,43,15.30
2011,07,02,11,44,15.40
2011,07,02,11,45,15.50
2011,07,02,11,46,15.70
2011,07,02,11,47,15.80
2011,07,02,11,48,15.90
2011,07,02,11,49,16.10
2011,07,02,11,50,16.10
2011,07,02,11,51,16.10
2011,07,02,11,52,16.00
2011,07,02,11,53,15.80
2011,07,02,11,54,15.80
2011,07,02,11,55,15.90
2011,07,02,11,56,15.90
2011,07,02,11,57,15.80
2011,07,02,11,58,15.80
2011,07,02,11,59,15.70
2011,07,02,12,00,15.70
2011,07,02,12,01,15.60
2011,07,02,12,02,15.60
2011,07,02,12,03,15.60
2011,07,02,12,04,15.60
2011,07,02,12,05,15.70
2011,07,02,12,06,15.70
2011,07,02,12,07,15.70
2011,07,02,12,08,15.80
2011,07,02,12,09,15.80
2011,07,02,12,10,15.80
2011,07,02,12,11,15.80
2011,07,02,12,12,15.80
2011,07,02,12,13,15.80
2011,07,02,12,14,15.80
2011,07,02,12,15,15.90
2011,07,02,12,16,15.90
2011,07,02,12,17,15.90
2011,07,02,12,18,15.90
2011,07,02,12,19,16.00
2011,07,02,12,20,16.10
2011,07,02,12,21,16.30
2011,07,02,12,22,16.40
2011,07,02,12,23,16.40
2011,07,02,12,24,16.40
2011,07,02,12,25,16.40
2011,07,02,12,26,16.40
2011,07,02,12,27,16.50
2011,07,02,12,28,16.60
2011,07,02,12,29,16.60
2011,07,02,12,30,16.70
2011,07,02,12,31,16.70
2011,07,02,12,32,16.60
2011,07,02,12,33,16.40
2011,07,02,12,34,16.30
2011,07,02,12,35,16.40
2011,07,02,12,36,16.40
2011,07,02,12,37,16.40
2011,07,02,12,38,16.40
2011,07,02,12,39,16.40
2011,07,02,12,40,16.40
2011,07,02,12,41,16.40
2011,07,02,12,42,16.40
2011,07,02,12,43,16.40
2011,07,02,12,44,16.40
2011,07,02,12,45,16.40
2011,07,02,12,46,16.50
2011,07,02,12,47,16.60
2011,07,02,12,48,16.70
2011,07,02,12,49,16.70
2011,07,02,12,50,16.70
2011,07,02,12,51,16.70
2011,07,02,12,52,16.70
2011,07,02,12,53,16.70
2011,07,02,12,54,16.60
2011,07,02,12,55,16.50
2011,07,02,12,56,16.40
2011,07,02,12,57,16.40
2011,07,02,12,58,16.40
2011,07,02,12,59,16.30
2011,07,02,13,00,16.20
2011,07,02,13,01,16.10
2011,07,02,13,02,16.10
2011,07,02,13,03,16.00
2011,07,02,13,04,15.90
2011,07,02,13,05,15.90
2011,07,02,13,06,15.90
2011,07,02,13,07,15.80
2011,07,02,13,08,15.70
2011,07,02,13,09,15.70
2011,07,02,13,10,15.70
2011,07,02,13,11,15.70
2011,07,02,13,12,15.70
2011,07,02,13,13,15.70
2011,07,02,13,14,15.60
2011,07,02,13,15,15.70
2011,07,02,13,16,15.60
2011,07,02,13,17,15.50
2011,07,02,13,18,15.50
2011,07,02,13,19,15.40
2011,07,02,13,20,15.30
2011,07,02,13,21,15.20
2011,07,02,13,22,15.10
2011,07,02,13,23,15.20
2011,07,02,13,24,15.20
2011,07,02,13,25,15.30
2011,07,02,13,26,15.30
2011,07,02,13,27,15.40
2011,07,02,13,28,15.40
2011,07,02,13,29,15.50
2011,07,02,13,30,15.60
2011,07,02,13,31,15.60
2011,07,02,13,32,15.60
2011,07,02,13,33,15.70
2011,07,02,13,34,15.70
2011,07,02,13,35,15.80
2011,07,02,13,36,15.80
2011,07,02,13,37,15.80
2011,07,02,13,38,15.80
2011,07,02,13,39,15.80
2011,07,02,13,40,15.80
2011,07,02,13,41,15.80
2011,07,02,13,42,15.80
2011,07,02,13,43,15.80
2011,07,02,13,44,15.80
2011,07,02,13,45,15.80
2011,07,02,13,46,15.80
2011,07,02,13,47,16.00
2011,07,02,13,48,16.10
2011,07,02,13,49,16.10
2011,07,02,13,50,16.10
2011,07,02,13,51,16.20
2011,07,02,13,52,16.30
2011,07,02,13,53,16.40
2011,07,02,13,54,16.40
2011,07,02,13,55,16.50
2011,07,02,13,56,16.70
2011,07,02,13,57,16.80
2011,07,02,13,58,16.90
2011,07,02,13,59,17.10
2011,07,02,14,00,17.20
2011,07,02,14,01,17.20
2011,07,02,14,02,17.20
2011,07,02,14,03,17.20
2011,07,02,14,04,17.10
2011,07,02,14,05,17.00
2011,07,02,14,06,17.00
2011,07,02,14,07,17.00
2011,07,02,14,08,17.00
2011,07,02,14,09,17.10
2011,07,02,14,10,17.10
2011,07,02,14,11,17.10
2011,07,02,14,12,17.20
2011,07,02,14,13,17.10
2011,07,02,14,14,17.10
2011,07,02,14,15,17.10
2011,07,02,14,16,17.10
2011,07,02,14,17,17.10
2011,07,02,14,18,17.10
2011,07,02,14,19,17.10
2011,07,02,14,20,17.00
2011,07,02,14,21,17.00
2011,07,02,14,22,17.00
2011,07,02,14,23,17.10
2011,07,02,14,24,17.10
2011,07,02,14,25,17.00
2011,07,02,14,26,17.00
2011,07,02,14,27,17.00
2011,07,02,14,28,16.90
2011,07,02,14,29,16.70
2011,07,02,14,30,16.70
2011,07,02,14,31,16.60
2011,07,02,14,32,16.60
2011,07,02,14,33,16.70
2011,07,02,14,34,16.70
2011,07,02,14,35,16.80
2011,07,02,14,36,16.80
2011,07,02,14,37,16.80
2011,07,02,14,38,16.80
2011,07,02,14,39,16.60
2011,07,02,14,40,16.50
2011,07,02,14,41,16.40
2011,07,02,14,42,16.40
2011,07,02,14,43,16.40
2011,07,02,14,44,16.30
2011,07,02,14,45,16.40
2011,07,02,14,46,16.50
2011,07,02,14,47,16.70
2011,07,02,14,48,16.90
2011,07,02,14,49,17.00
2011,07,02,14,50,17.30
2011,07,02,14,51,17.60
2011,07,02,14,52,17.80
2011,07,02,14,53,18.10
2011,07,02,14,54,18.40
2011,07,02,14,55,18.50
2011,07,02,14,56,18.70
2011,07,02,14,57,18.80
2011,07,02,14,58,18.90
2011,07,02,14,59,19.00
2011,07,02,15,00,19.10
2011,07,02,15,01,19.20
2011,07,02,15,02,19.30
2011,07,02,15,03,19.40
2011,07,02,15,04,19.60
2011,07,02,15,05,19.70
2011,07,02,15,06,19.90
2011,07,02,15,07,20.10
2011,07,02,15,08,20.30
2011,07,02,15,09,20.40
2011,07,02,15,10,20.60
2011,07,02,15,11,20.70
2011,07,02,15,12,20.80
2011,07,02,15,13,21.00
2011,07,02,15,14,21.10
2011,07,02,15,15,21.30
2011,07,02,15,16,21.30
2011,07,02,15,17,21.30
2011,07,02,15,18,21.30
2011,07,02,15,19,21.50
2011,07,02,15,20,21.60
2011,07,02,15,21,21.70
2011,07,02,15,22,21.70
2011,07,02,15,23,21.70
2011,07,02,15,24,21.70
2011,07,02,15,25,21.70
2011,07,02,15,26,21.70
2011,07,02,15,27,21.80
2011,07,02,15,28,22.00
2011,07,02,15,29,22.00
2011,07,02,15,30,22.00
2011,07,02,15,31,22.00
2011,07,02,15,32,22.00
2011,07,02,15,33,22.00
2011,07,02,15,34,22.00
2011,07,02,15,35,22.00
2011,07,02,15,36,22.00
2011,07,02,15,37,22.00
2011,07,02,15,38,22.00
2011,07,02,15,39,22.00
2011,07,02,15,40,22.00
2011,07,02,15,41,22.10
2011,07,02,15,42,22.10
2011,07,02,15,43,22.10
2011,07,02,15,44,22.10
2011,07,02,15,45,22.10
2011,07,02,15,46,22.10
2011,07,02,15,47,22.10
2011,07,02,15,48,22.00
2011,07,02,15,49,21.80
2011,07,02,15,50,21.80
2011,07,02,15,51,21.70
2011,07,02,15,52,21.70
2011,07,02,15,53,21.70
2011,07,02,15,54,21.70
2011,07,02,15,55,21.70
2011,07,02,15,56,21.70
2011,07,02,15,57,21.70
2011,07,02,15,58,21.90
2011,07,02,15,59,22.50
2011,07,02,16,00,22.50
2011,07,02,16,01,22.50
2011,07,02,16,02,22.50
2011,07,02,16,03,22.50
2011,07,02,16,04,22.50
2011,07,02,16,05,22.60
2011,07,02,16,06,22.60
2011,07,02,16,07,22.50
2011,07,02,16,08,22.50
2011,07,02,16,09,22.50
2011,07,02,16,10,22.40
2011,07,02,16,11,22.40
2011,07,02,16,12,22.40
2011,07,02,16,13,22.40
2011,07,02,16,14,22.40
2011,07,02,16,15,22.40
2011,07,02,16,16,22.40
2011,07,02,16,17,22.30
2011,07,02,16,18,22.30
2011,07,02,16,19,22.30
2011,07,02,16,20,22.30
2011,07,02,16,21,22.30
2011,07,02,16,22,22.30
2011,07,02,16,23,22.40
2011,07,02,16,24,22.40
2011,07,02,16,25,22.50
2011,07,02,16,26,22.50
2011,07,02,16,27,22.50
2011,07,02,16,28,22.40
2011,07,02,16,29,22.30
2011,07,02,16,30,22.30
2011,07,02,16,31,22.20
2011,07,02,16,32,22.10
2011,07,02,16,33,22.00
2011,07,02,16,34,21.90
2011,07,02,16,35,21.80
2011,07,02,16,36,21.70
2011,07,02,16,37,21.70
2011,07,02,16,38,21.70
2011,07,02,16,39,21.60
2011,07,02,16,40,21.60
2011,07,02,16,41,21.60
2011,07,02,16,42,21.50
2011,07,02,16,43,21.40
2011,07,02,16,44,21.30
2011,07,02,16,45,21.30
2011,07,02,16,46,21.20
2011,07,02,16,47,21.10
2011,07,02,16,48,21.00
2011,07,02,16,49,21.00
2011,07,02,16,50,20.80
2011,07,02,16,51,20.60
2011,07,02,16,52,20.40
2011,07,02,16,53,20.30
2011,07,02,16,54,20.20
2011,07,02,16,55,20.10
2011,07,02,16,56,19.90
2011,07,02,16,57,19.70
2011,07,02,16,58,19.60
2011,07,02,16,59,19.40
2011,07,02,17,00,19.40
2011,07,02,17,01,19.30
2011,07,02,17,02,19.20
2011,07,02,17,03,19.10
2011,07,02,17,04,18.90
2011,07,02,17,05,18.90
2011,07,02,17,06,18.90
2011,07,02,17,07,18.90
2011,07,02,17,08,18.90
2011,07,02,17,09,18.90
2011,07,02,17,10,18.90
2011,07,02,17,11,18.90
2011,07,02,17,12,18.90
2011,07,02,17,13,18.90
2011,07,02,17,14,18.90
2011,07,02,17,15,18.90
2011,07,02,17,16,18.90
2011,07,02,17,17,18.90
2011,07,02,17,18,18.80
2011,07,02,17,19,18.70
2011,07,02,17,20,18.70
2011,07,02,17,21,18.60
2011,07,02,17,22,18.60
2011,07,02,17,23,18.60
2011,07,02,17,24,18.70
2011,07,02,17,25,18.70
2011,07,02,17,26,18.70
2011,07,02,17,27,18.70
2011,07,02,17,28,18.70
2011,07,02,17,29,18.80
2011,07,02,17,30,18.90
2011,07,02,17,31,19.10
2011,07,02,17,32,19.10
2011,07,02,17,33,19.20
2011,07,02,17,34,19.30
2011,07,02,17,35,19.40